sat.trackr.live / text

‹ back to catalog

ONEWEB-0572

NORAD 55151 · 2023-004M

PAYLOAD ACTIVE UNKNOWN

§ Identity

Operator
Country
UK
Launch date
2023-01-10
Launch site
AFETR
Launch vehicle
Mass (kg)
RCS (m²)

Purposes: comms

External: N2YO · Heavens-Above · Gunter

§ Orbital elements

Epoch: 2026-09-20T05:04:53.230080Z

Period
109.29 min
Inclination
87.9200°
Eccentricity
0.0001739
Mean motion
13.17650636 rev/d
Perigee alt
1,192.4 km
Apogee alt
1,195.0 km
Semi-major
7,571.8 km
B*
1.8161e-4
RAAN
346.9961°
Arg perigee
103.1713°
Mean anomaly
256.9612°
Rev number
17,999

§ Raw data

ONEWEB-05721 55151U 23004M   26263.21172720  .00000083  00000+0  18161-3 0  99972 55151  87.9200 346.9961 0001739 103.1713 256.9612 13.17650636179993

JSON: /api/v1/satellites/55151 · /tle

For live sub-satellite position, see the globe view (requires WebGL).

§ Visibility from observer

Set your observer location to see the next 7 days of passes ≥ 10°. The values pass through the URL so the page stays shareable.

No JS? Fill the form by hand. The geolocation button needs JavaScript.